Location: Munkebjergskolens Observatorium
(55.3864°N, 10.3987°E)
Time: 09:07:49
(UTC+02:00)

JY1SAT - Pass Details

Date: 03 April 2023
Orbit: 555 x 574 km, 97.6° (Epoch: 03 June)

Event Time Altitude Azimuth Distance (km) Brightness Sun altitude
Exits shadow 21:58:54 32° 137° (SE) 983 ? -16.3°
Maximum altitude 22:00:35 60° 70° (ENE) 653 ? -16.5°
Drops below altitude 10° 22:04:35 10° 351° (N) 1,881 ? -16.9°
Sets 22:06:46 0° 348° (NNW) 2,787 ? -17.1°
